Weather in Beglitsa

Russia / Rostov Oblast     47°08′41″N   38°34′20″E
temp.,
°C
wind,
m/s
gust,
m/s
humid.,
%
clouds,
%
prec.,
mm/h
press.,
hPa
HPBL,
m
27 november, sat
sat2700:00+4se41081100 0.0 1018297
03:00+4se7148040 0.0 1016338
06:00+3se71380100 0.0 1015315
09:00+4se71473100 0.0 1014334
12:00+5ese71573100 0.4 1012348
15:00+8se61369100 0.4 1010457
18:00+8sse61277100 0.0 1010278
21:00+9s4129485 0.2 1011300
28 november, sun
sun2800:00+8s359779 0.1 1011105
03:00+7sse3596100 0.1 101176
06:00+7s349722 0.0 101061
09:00+8s359836 0.0 101198
12:00+11ssw468821 0.0 1011247
15:00+11sw4991100 0.0 1012334
18:00+11sse3392100 0.0 101257
21:00+10se4799100 1.5 1012162
29 november, mon
mon2900:00+10sse61498100 4.7 1011520
03:00+10se6139692 6.7 1010360
06:00+10sse61595100 0.4 1009457
09:00+10sse51491100 0.4 1009424
12:00+11s51684100 0.3 1008673
15:00+12sse7188095 0.4 1004522
18:00+13ssw9207495 0.1 1002567
21:00+13s71874100 0.6 1000562
30 november, tue
tue3000:00+11ssw132198100 7.1 1000879
03:00+10ssw101898100 16.9 999769
06:00+9sw6119498 5.6 999364
09:00+9wsw5991100 5.6 1002296
12:00+9wsw357462 0.6 1003583
15:00+10sw456555 0.6 1002542
18:00+7ssw347887 0.0 100187
21:00+7n2275100 0.0 99913
1 december, wed
wed100:00+7nnw3772100 0.1 998257
03:00+4nw61072100 0.6 1000676
06:00+3nw71267100 0.1 1003793
09:00+2w6107330 0.1 1007731
12:00+4w69561 0.0 1008883
15:00+5wsw69475 0.0 10081041
18:00+4sw611615 0.0 1008462
21:00+4sw8138883 0.1 1008895